This is the latest recevied weather packets stored in our database for station/object LA9TLA-1. If no packets are shown the sender has not sent any weather packets the latest 10 day(s).
| Time | Temp. | Humidity | Pressure | Rain* | Wind** | Luminosity | Snow |
|---|---|---|---|---|---|---|---|
| 1777737466 | 11.67° C | 50% | 1020.6 hPa | 0 mm | - | - | - |
| 1777735664 | 12.22° C | 13% | 1020.9 hPa | 0 mm | - | - | - |
| 1777733865 | 14.44° C | 32% | 1021.1 hPa | 0 mm | - | - | - |
| 1777732065 | 12.78° C | 75% | 1021.5 hPa | 0.25 mm | - | - | - |
| 1777730270 | 11.11° C | 99% | 1021.9 hPa | 0.25 mm | - | - | - |
| 1777728465 | 10.56° C | 99% | 1022.2 hPa | 0 mm | - | - | - |
| 1777726667 | 10° C | 99% | 1022.2 hPa | 0 mm | - | - | - |
| 1777721265 | 10° C | 59% | 1022.2 hPa | 0 mm | - | - | - |
| 1777719468 | 10.56° C | 32% | 1022.2 hPa | 0 mm | - | - | - |
| 1777715867 | 10.56° C | 12% | 1022.7 hPa | 0 mm | - | - | - |
| 1777712269 | 10.56° C | 10% | 1023.1 hPa | 0 mm | - | - | - |
| 1777710465 | 10° C | 10% | 1023.2 hPa | 0 mm | - | - | - |
| 1777708666 | 10.56° C | 10% | 1023.2 hPa | 0 mm | - | - | - |
| 1777706868 | 10.56° C | 10% | 1023.2 hPa | 0 mm | - | - | - |
| 1777705068 | 10.56° C | 10% | 1023.1 hPa | 0 mm | - | - | - |
| 1777703266 | 12.22° C | 10% | 1023.2 hPa | 0 mm | - | - | - |
| 1777701465 | 13.33° C | 10% | 1023 hPa | 0 mm | - | - | - |
| 1777699664 | 10.56° C | 10% | 1023.2 hPa | 0 mm | - | - | - |
| 1777697865 | 11.67° C | 10% | 1023.6 hPa | 0 mm | - | - | - |
| 1777696064 | 7.78° C | 10% | 1023.4 hPa | 0 mm | - | - | - |
| 1777694268 | 6.67° C | 10% | 1024.3 hPa | 0 mm | - | - | - |
| 1777692468 | 7.78° C | 10% | 1024.1 hPa | 0 mm | - | - | - |
| 1777690668 | 7.22° C | 10% | 1024.3 hPa | 0 mm | - | - | - |
| 1777687067 | 8.33° C | 10% | 1025.5 hPa | 0 mm | - | - | - |
| 1777685266 | 8.89° C | 10% | 1025.9 hPa | 0 mm | - | - | - |
* Rain latest hour (hover to see other rain measurements)
** Current wind speed in m/s (hover to see current wind gust speed)